Location: ?????????
(54.7630°N, 39.4991°E)
Time: 14:58:10
(UTC+00:00)

Cosmos 2369 Rocket - Pass Details

Date: 14 April 2026
Orbit: 829 x 850 km, 71.0° (Epoch: 17 May)

Event Time Altitude Azimuth Distance (km) Brightness Sun altitude
Rises 16:58:07 0° 321° (NW) 3,390 6.7 -5.4°
Reaches altitude 10° 17:01:08 10° 336° (NNW) 2,451 5.4 -5.8°
Maximum altitude 17:05:28 22° 27° (NNE) 1,742 3.9 -6.4°
Drops below altitude 10° 17:09:46 10° 77° (ENE) 2,442 4.2 -7.0°
Enters shadow 17:11:28 - 87° (E) 2,952 4.5 -7.2°
